Location: ČR
(50.0000°N, 15.0000°E)
Time: 18:19:24
(UTC+00:00)

O/OREOS (USA 219) - Pass Details

Date: 13 December 2021
Orbit: 621 x 646 km, 72.0° (Epoch: 22 May)

Event Time Altitude Azimuth Distance (km) Brightness Sun altitude
Rises 18:46:26 0° 323° (NW) 2,961 ? -35.4°
Reaches altitude 10° 18:49:01 10° 311° (NW) 2,049 ? -35.8°
Enters shadow 18:50:52 19° 292° (WNW) 1,527 ? -36.1°
